Location: Il Bastardo
(43.4500°N, 11.8000°E)
Time: 22:18:39
(UTC+00:00)

Daily predictions for brighter satellites

Satellite Brightness Start Highest point End
(mag) Time Altitude Azimuth Time Altitude Azimuth Time Altitude Azimuth
ARGOS 4.2 17:24:36 10° ESE 17:28:52 25° ENE 17:33:09 10° N
NOSS 2-2 (C) 3.7 17:25:28 10° SW 17:28:55 61° NW 17:32:43 10° NNE
NOSS 3-2 (A) 4.2 17:22:37 10° NNW 17:30:01 58° NE 17:38:19 10° SE
CZ-2C R/B 4.2 17:30:16 10° NE 17:33:15 15° E 17:36:15 10° ESE
Meteor 1-21 4.4 17:32:15 10° NNW 17:37:52 83° W 17:43:28 10° S
Cosmos 2151 Rocket 4.4 17:34:08 10° SSE 17:38:03 31° E 17:42:00 10° NNE
Lacrosse 5 rocket 3.9 17:37:23 10° NW 17:39:43 14° N 17:42:05 10° NNE
Cosmos 1975 Rocket 3.2 17:36:48 10° N 17:41:09 82° W 17:45:27 10° S
HJ-1C 4.2 17:40:37 10° SE 17:43:30 29° ENE 17:46:25 10° N
Shenzhou-11 Module 2.9 17:49:02 10° SSW 17:50:38 18° SSE 17:51:33 14° ESE
COSMO-SKYMED 1 3.6 17:46:32 10° N 17:50:46 52° WNW 17:54:59 10° SSW
Ariane Rocket 4.2 17:48:11 10° ESE 17:52:04 23° ENE 17:55:58 10° NNE
H-2A R/B 2.2 17:47:59 10° SE 17:52:46 48° ENE 17:57:42 10° N
Nadezhda 4 Rocket 4.3 17:48:10 10° N 17:53:59 44° ENE 17:59:48 10° SSE
SJ 16-02 4.5 17:53:00 10° W 17:54:55 13° NW 17:56:52 10° NNW
Exosat Rocket 4.1 17:51:54 10° S 17:56:59 37° ESE 18:01:33 10° NE
Cosmos 2263 Rocket 4.2 17:53:20 10° WSW 17:58:10 30° NW 18:03:05 10° N
Cosmos 1939 Rocket 4.5 17:56:58 10° SSW 18:00:51 40° W 18:04:47 10° NNW
USA 116 3.6 17:57:17 10° NNE 18:01:02 76° ESE 18:05:14 10° S
Cosmos 1844 Rocket 2.6 17:56:48 10° SSW 18:02:19 71° ESE 18:07:54 10° NNE
Cosmos 1707 2.9 18:02:24 10° NNW 18:06:15 74° W 18:10:03 10° S
Cosmos 2278 Rocket 4.1 18:03:49 10° SE 18:10:00 10° ENE 18:03:58 10° SE
Cosmos 1626 4.0 18:05:33 10° NE 18:07:28 14° ENE 18:07:28 14° ENE
CZ-2C R/B 3.4 18:06:07 10° SW 18:08:13 14° SSW 18:10:15 10° SSE
NOSS 3-2 (C) 4.2 18:00:49 10° NNW 18:08:18 63° NE 18:16:08 12° SE
Cosmos 1844 3.7 18:04:08 10° SSW 18:09:46 66° ESE 18:15:22 10° NNE
Cosmos 2034 Rocket 4.0 18:03:37 10° S 18:09:51 62° E 18:16:06 10° NNE
NOSS 3-4 (A) 3.7 18:05:53 10° S 18:11:17 40° ESE 18:16:58 10° NE
NOSS 3-4 (C) 3.7 18:06:00 10° S 18:11:24 39° ESE 18:17:04 10° NE
ISS -1.8 18:09:00 10° WNW 18:11:51 25° NNW 18:14:42 10° NE
USA 186 2.9 18:11:04 22° E 18:11:53 25° ENE 18:14:38 10° NNE
Meteor 1-12 Rocket 4.4 18:07:25 10° S 18:13:20 83° WNW 18:19:08 10° N
Meteor 2-5 Rocket 4.4 18:09:00 10° N 18:14:10 35° ENE 18:18:15 15° SE
Cosmos 1300 Rocket 3.9 18:14:17 10° SSW 18:18:40 70° W 18:23:07 10° N
Okean 1 Rocket 3.5 18:17:41 10° SSE 18:21:53 41° E 18:26:07 10° NNE
Resurs 01 Rocket 3.6 18:25:52 14° NE 18:25:52 14° NE 18:27:41 10° NNE
CENTAUR R/B 3.2 18:19:17 10° NW 18:27:26 76° NE 18:34:46 16° SE
Cosmos 1833 Rocket 3.9 18:23:58 10° N 18:28:30 24° NE 18:30:11 21° ENE
CSL-04 Rocket 4.1 18:25:26 10° S 18:30:50 67° WSW 18:36:21 10° NNW
Cosmos 1766 3.5 18:29:11 10° SSE 18:32:54 44° E 18:36:41 10° NNE
Okean 2 Rocket 4.2 18:28:56 10° SSW 18:33:16 48° WNW 18:37:36 10° N
YAOGAN 1 4.2 18:29:40 10° SSW 18:33:37 35° W 18:37:37 10° NNW
ATLAS 2AS CENTAUR R/B 3.1 18:26:00 10° SSW 18:33:41 58° ESE 18:41:24 10° NE
Cosmos 1025 Rocket 3.8 18:31:22 10° NNW 18:35:39 54° W 18:39:56 10° S
Cosmos 1634 Rocket 4.2 18:31:51 10° SSE 18:37:39 45° E 18:43:30 10° NNE
ATLAS 3B R/B 3.5 18:33:13 10° NNW 18:39:30 36° NE 18:42:34 25° E
SPOT 3 Rocket 4.4 18:40:11 28° E 18:40:52 29° ENE 18:45:14 10° N
Abrixas rocket 1.9 18:39:25 10° WNW 18:42:11 67° N 18:42:11 67° N
CREW DRAGON DEMO-1 DEB 2.7 18:41:14 10° NW 18:44:16 69° NNE 18:44:16 69° NNE
Cosmos 1536 Rocket 4.2 18:41:03 10° NNW 18:45:27 58° W 18:49:50 10° S
Cosmos 1125 Rocket 3.9 18:40:50 10° SSW 18:46:06 66° WNW 18:51:25 10° NNE
Resurs 1-3 4.4 18:48:54 32° ENE 18:48:54 32° ENE 18:52:33 10° N
SJ-6B 2.7 18:48:31 55° E 18:48:49 57° ENE 18:52:32 10° N
CZ-4 R/B 4.3 18:48:25 10° SW 18:51:24 19° W 18:54:22 10° NW
Cosmos 2195 Rocket 4.4 18:49:39 10° N 18:55:54 72° E 19:00:07 21° SSE
USA 238 DEB 4.4 18:49:26 10° NW 18:56:31 56° WSW 19:03:15 12° SSE
USA 238 4.4 18:49:32 10° NW 18:56:37 56° WSW 19:03:18 13° SSE
Cosmos 2285 Rocket 4.2 18:50:28 10° SSW 18:56:46 75° WNW 19:03:09 10° NNE
Cosmos 1627 Rocket 4.5 18:51:08 10° N 18:57:32 68° E 19:01:24 25° SSE
Cosmos 1674 3.3 18:54:02 10° NNW 18:57:49 56° W 19:00:17 20° SSW
Cosmos 2026 Rocket 4.0 18:52:25 10° N 18:58:48 66° E 19:02:16 28° SSE
Cosmos 1092 Rocket 3.9 18:52:45 10° N 18:58:58 85° E 19:04:17 15° S
MOS 1 Rocket 4.5 18:59:40 10° N 19:03:44 39° WNW 19:07:42 10° SW
Cosmos 1428 Rocket 4.4 19:01:05 10° N 19:07:21 72° E 19:10:06 35° SSE
TSX-5 4.1 19:04:24 10° SW 19:08:09 70° WNW 19:12:59 10° NNE
ARGOS 4.0 19:03:41 10° S 19:08:50 48° W 19:14:02 10° NNW
Cosmos 1340 Rocket 4.0 19:15:11 32° NNE 19:15:11 32° NNE 19:17:25 10° NNE
Cosmos 2279 Rocket 4.0 19:12:59 47° SE 19:14:08 54° E 19:20:14 10° NNE
CZ-2C R/B 2.8 19:08:33 10° N 19:14:09 81° WNW 19:19:46 10° SSW
Cosmos 1733 3.6 19:13:47 36° SW 19:15:08 61° W 19:18:57 10° N
MOS 1 4.3 19:13:05 29° S 19:16:07 80° WSW 19:21:52 10° NNW
Lacrosse 5 rocket 3.5 19:17:14 10° NNW 19:20:24 19° NNE 19:20:43 19° NNE
Cosmos 2082 Rocket 3.1 19:16:36 10° N 19:21:17 34° NE 19:21:17 34° NE
DMSP B5D2-2 4.2 19:18:40 10° N 19:23:58 75° WNW 19:29:13 10° SSW
BREEZE-M R/B 4.2 19:15:53 10° W 19:23:59 48° NNW 19:24:25 45° N
BREEZE-M DEB (TANK) 4.1 19:20:30 10° WNW 19:24:19 49° SSW 19:27:36 33° SSE
OBJECT-B 3.2 19:28:48 19° NNW 19:28:48 19° NNW 19:29:53 10° NNW
Cosmos 2142 Rocket 4.3 19:24:38 31° S 19:27:51 80° E 19:34:05 10° N
Ariane Rocket 3.8 19:28:06 26° SSW 19:30:42 48° W 19:35:37 10° NNW
H-2A R/B 4.3 19:28:45 10° SW 19:32:28 21° W 19:36:18 10° NW
Milstar 3 Cent rocket 4.1 19:29:22 10° SW 19:32:39 17° SSW 19:32:39 17° SSW
USA 234 4.2 19:38:14 32° S 19:38:14 32° S 19:41:46 10° SSW
Cosmos 1626 3.9 19:39:36 10° NNW 19:42:02 30° NW 19:42:02 30° NW
COSMOS 2406 3.3 19:42:08 10° NNW 19:47:47 70° WSW 19:47:55 69° WSW
ISS -0.7 19:46:48 10° NW 19:47:46 15° NNW 19:47:46 15° NNW
Cosmos 2278 Rocket 2.6 19:44:31 10° SSW 19:51:32 53° N 19:55:52 10° NNE
Lacrosse 4 Rocket 3.5 19:51:19 10° NNW 19:52:52 22° NNW 19:52:52 22° NNW
Cosmos 909 Rocket 4.3 19:54:15 10° NNW 19:59:55 57° NNE 19:59:55 57° NNE
Resurs 01 Rocket 3.2 20:03:26 31° NNW 20:03:26 31° NNW 20:05:51 10° NNW
Cosmos 1833 Rocket 3.3 20:07:17 10° NNW 20:11:54 52° WNW 20:11:54 52° WNW
ATLAS 2AS CENTAUR R/B 4.0 20:17:31 10° WSW 20:25:00 43° NW 20:32:25 10° NNE
ATLAS 3B R/B 3.1 20:23:45 10° NW 20:29:50 57° W 20:29:50 57° W
Cosmos 2082 Rocket 4.2 21:00:40 10° NW 21:03:08 24° NW 21:03:08 24° NW
